Regional Weather Roundup
Issued by NWS

Home | Current Version | Previous Version | Text Only | Print | Product List | Glossary On
Versions: 1 2 3 4 5 6 7 8 9 10 11 12 13 14 15 16 17 18 19 20 21 22 23 24 25 26 27 28 29 30 31 32 33 34 35 36 37 38 39 40 41 42 43 44 45 46 47 48 49 50
000
ASPQ40 PGUM 290614
RWRPQ
WEATHER ROUNDUP FOR THE MARIANAS AND MICRONESIA
NATIONAL WEATHER SERVICE TIYAN GU
400 PM CHST FRI MAY 29 2015

GUZ001>004-290700-
MARIANA ISLANDS-

CITY           SKY/WX    TMP DP  RH WIND       PRES   REMARKS
GUAM AIRPORT   PTSUNNY   84  75  74 SE7       29.88S HX  92
ANDERSEN AFB   PTSUNNY   82  75  78 SE10      29.88F
ROTA AIRPORT   NOT AVBL
TINIAN AP      NOT AVBL
SAIPAN AP      MOSUNNY   82  77  83 SE10G22   29.88S HX  91

$$

PMZ161-290700-
REPUBLIC OF PALAU-

CITY           SKY/WX    TMP DP  RH WIND       PRES   REMARKS
KOROR AP       PTSUNNY   88  77  70 S7        29.83F HX 100
KOROR WSO      CLOUDY    88  77  70 S8        29.82F HX 100

$$

PMZ171>174-290700-
FEDERATED STATES OF MICRONESIA-

CITY           SKY/WX    TMP DP  RH WIND       PRES   REMARKS
YAP AIRPORT    MOSUNNY   90  75  62 VRB5      29.81F HX 100
CHUUK AP       PTSUNNY   84  79  84 VRB3      29.84S HX  96
POHNPEI AP     NOT AVBL
POHNPEI WSO    CLOUDY    84  77  79 E3        29.89R HX  94
KOSRAE AP      NOT AVBL

$$

PMZ181-290700-
REPUBLIC OF THE MARSHALL ISLANDS-

CITY           SKY/WX    TMP DP  RH WIND       PRES   REMARKS
KWAJALEIN AP   CLOUDY    82  73  74 NE15      29.85R
MAJURO AP      MOCLDY    84  77  79 NE14      29.82R HX  94
MAJURO WSO     MOSUNNY   84  75  74 NE12      29.82R HX  92

$$



USA.gov is the U.S. government's official web portal to all federal, state and local government web resources and services.